[[{"header":{"parameterUnit":"m.s-1","parameterCategory":1,"la1":30.2991,"la2":30.254,"lo1":-89.0895,"lo2":-89.0444,"dy":0.0017,"dx":0.0017,"nx":28,"ny":28,"refTime":"2025-12-02T03:00:00:Z","depth":0,"parameterNumber":2,"parameterNumberName":"U-component_of_WINDS"},"data":[0,0,0,0,0,0,0,0,0,0,0,0,0,0,0,0,0,0,0,0,0,0,0,0,0,0,0,0,0,0,0,0,0,0,0,0,0,0,0,0,0,0,0,0,0,0,0,0,0,0,0,0,0,0,0,0,0,0,3.0844,3.0844,0,3.0837,3.0837,3.0837,3.0782,3.0781,3.0779,3.0778,3.0772,3.0773,3.0774,0,0,0,0,0,0,0,0,0,0,0,0,0,3.081,3.081,3.0844,3.0844,3.0843,3.0837,3.0837,3.0837,3.0782,3.0781,3.0779,3.0777,3.0772,3.0773,3.0774,0,0,0,0,0,0,0,0,0,0,0,0,0,3.0816,3.0811,3.0844,3.0815,3.0813,3.0837,3.0837,3.0837,3.0783,3.078,3.0778,3.0776,3.0771,3.0773,3.0774,3.0826,0,0,3.078,3.078,0,0,0,0,0,0,0,0,3.0816,3.0817,3.0819,3.0817,3.0814,3.0808,3.0823,3.0833,3.0783,3.0794,3.0778,3.0775,3.0786,3.0786,3.0789,3.0826,3.0825,3.078,3.0781,3.0781,3.0782,0,0,0,0,0,0,0,3.0815,3.0817,3.0841,3.082,3.0816,3.0803,3.0802,3.0825,3.0802,3.0793,3.0789,3.0789,3.0784,3.0788,3.0789,3.0825,3.078,3.0781,3.0782,3.0783,3.0906,3.0908,0,0,0,0,0,0,3.0819,3.0817,3.0841,3.0841,3.081,3.0806,3.0804,3.0812,3.0801,3.0797,3.0791,3.0786,3.0786,3.0787,3.0788,3.0849,3.0781,3.0783,3.0784,3.0903,3.0906,3.0908,0,0,0,0,0,0,3.0818,3.0821,3.0842,3.0828,3.083,3.0808,3.0818,3.0813,3.0817,3.0799,3.0795,3.0799,3.0785,3.0786,3.0817,3.0848,3.0784,3.0785,3.0901,3.0904,3.0907,3.097,0,0,0,0,0,0,3.0817,3.0821,3.084,3.0829,3.0831,3.087,3.082,3.0815,3.082,3.0815,3.0806,3.0803,3.0783,3.0815,3.0819,3.0849,3.0787,3.0898,3.0902,3.0906,3.0965,3.0975,3.0984,0,0,0,0,0,3.0816,3.0858,3.0841,3.0845,3.0854,3.0872,3.0873,3.0849,3.0823,3.0842,3.0831,3.0803,3.0844,3.0819,3.0823,3.0854,3.0896,3.0901,3.0906,3.0961,3.0973,3.0984,0,0,0,0,0,0,3.0873,3.0856,3.0837,3.0876,3.0876,3.0863,3.0886,3.0863,3.087,3.0865,3.0835,3.0834,3.087,3.0865,3.0837,3.0904,3.0865,3.0871,3.0906,3.0917,3.0926,3.0927,3.0788,0,0,0,0,0,3.089,3.0906,3.089,3.0926,3.0927,3.0907,3.0914,3.0896,3.0895,3.0894,3.0885,3.0886,3.0899,3.0908,3.0919,3.0965,3.0962,3.0988,3.0997,3.1005,3.101,3.1036,3.1047,3.0925,3.0925,3.0925,0,0,3.0925,3.0918,3.093,3.0938,3.0935,3.0954,3.0907,3.0928,3.0941,3.0898,3.0927,3.0921,3.0919,3.0958,3.0975,3.0955,3.1044,3.1011,3.1018,3.1019,3.1042,3.1054,3.1064,3.0929,3.0928,3.0927,0,0,3.0999,3.0995,3.1025,3.1024,3.1021,3.1008,3.1015,3.1006,3.1,3.1029,3.0997,3.1013,3.1036,3.1036,3.104,3.1116,3.1091,3.1121,3.1169,3.1194,3.1203,3.1212,3.124,3.125,3.1126,3.1126,3.1126,0,3.1043,3.1068,3.1043,3.1066,3.1071,3.1034,3.1065,3.1065,3.1066,3.1071,3.1049,3.1078,3.1074,3.1113,3.1132,3.1136,3.1144,3.1121,3.1204,3.1212,3.122,3.1246,3.1257,3.113,3.113,3.1129,3.1129,0,3.1123,3.1142,3.1166,3.1169,3.1177,3.1204,3.1184,3.1195,3.1177,3.1166,3.1197,3.1192,3.1201,3.121,3.1192,3.1247,3.1235,3.1209,3.1169,3.1235,3.126,3.127,3.1135,3.1134,3.1133,3.1132,0,0,3.123,3.122,3.123,3.1232,3.1227,3.1241,3.1267,3.1277,3.1288,3.1291,3.1312,3.1334,3.131,3.1314,3.1296,3.1318,3.1381,3.129,3.1289,3.1307,3.1442,3.1462,3.1474,3.1364,3.1366,3.1367,3.1443,0,3.1301,3.1345,3.1324,3.137,3.1388,3.1354,3.1377,3.1377,3.1368,3.1382,3.1372,3.1388,3.1355,3.1358,3.1378,3.1369,3.1407,3.1363,3.1385,3.1386,3.1386,3.1486,3.1507,3.1578,3.1452,3.1453,3.1454,0,3.139,3.1397,3.1445,3.1439,3.1446,3.1467,3.1475,3.1489,3.1489,3.1481,3.1487,3.1465,3.1491,3.1452,3.1489,3.1459,3.1467,3.1464,3.1466,3.1467,3.1424,3.149,3.16,3.1611,3.1469,3.1468,3.1467,0,3.1464,3.1486,3.1518,3.152,3.1514,3.153,3.1528,3.1526,3.1534,3.1542,3.1547,3.1557,3.1563,3.1572,3.1554,3.1528,3.1593,3.1553,3.1588,3.1589,3.1603,3.1602,3.1716,3.1608,3.1608,3.1608,3.1608,0,3.1545,3.1577,3.1552,3.1571,3.1606,3.1582,3.1617,3.1611,3.1611,3.1629,3.16,3.1618,3.1593,3.1609,3.1596,3.1628,3.1631,3.1626,3.1622,3.1629,3.1629,3.1633,3.1628,3.1611,3.161,3.161,3.1609,0,3.1634,3.1618,3.1651,3.1643,3.1642,3.1668,3.1661,3.1679,3.1669,3.1694,3.1698,3.1682,3.17,3.1683,3.1699,3.169,3.1734,3.1723,3.1734,3.1731,3.1768,3.1765,3.1887,3.1902,3.1785,3.1786,3.1787,0,3.1687,3.171,3.1705,3.1716,3.1716,3.1733,3.1741,3.172,3.173,3.1733,3.1752,3.1767,3.1778,3.1808,3.1798,3.1811,3.18,3.1842,3.1802,3.1808,3.1801,3.18,3.1803,3.185,3.1852,3.1853,3.1854,0,3.1783,3.1774,3.1787,3.1799,3.181,3.1817,3.1823,3.1833,3.1811,3.1824,3.1842,3.1851,3.1868,3.1884,3.1895,3.1893,3.1871,3.1867,3.1876,3.1883,3.1889,3.1887,3.1757,3.1864,3.1863,3.1862,3.1862,3.1861,3.1855,3.1875,3.1875,3.1891,3.1893,3.1899,3.1917,3.191,3.1924,3.1937,3.1924,3.1946,3.1947,3.1959,3.196,3.1978,3.196,3.1973,3.1976,3.198,3.1986,3.1886,3.198,3.1979,3.1979,3.1979,3.1979,0,3.195,3.1949,3.1964,3.1973,3.1986,3.1964,3.197,3.1982,3.2002,3.2006,3.2018,3.2039,3.2055,3.2047,3.2061,3.2077,3.2067,3.2082,3.208,3.208,3.2,3.1991,3.2089,3.2089,3.2089,3.2089,3.2089,3.2089,3.2001,3.2034,3.2026,3.206,3.2058,3.208,3.2085,3.2091,3.2094,3.212,3.2133,3.2128,3.2127,3.2141,3.2155,3.2153,3.2159,3.2178,3.2172,3.2097,3.2086,3.2075,3.2067,3.2179,3.2179,3.225,3.2251,3.2251]},{"header":{"parameterUnit":"m.s-1","parameterCategory":1,"la1":30.2991,"la2":30.254,"lo1":-89.0895,"lo2":-89.0444,"dy":0.0017,"dx":0.0017,"nx":28,"ny":28,"refTime":"2025-12-02T03:00:00:Z","depth":0,"parameterNumber":3,"parameterNumberName":"V-component_of_WINDS"},"data":[0,0,0,0,0,0,0,0,0,0,0,0,0,0,0,0,0,0,0,0,0,0,0,0,0,0,0,0,0,0,0,0,0,0,0,0,0,0,0,0,0,0,0,0,0,0,0,0,0,0,0,0,0,0,0,0,0,0,-7.2561,-7.2562,0,-7.2715,-7.2717,-7.2719,-7.2701,-7.2699,-7.2696,-7.2694,-7.2846,-7.2852,-7.2858,0,0,0,0,0,0,0,0,0,0,0,0,0,-7.2246,-7.2252,-7.256,-7.2562,-7.2564,-7.2715,-7.2717,-7.2719,-7.2702,-7.2699,-7.2696,-7.2693,-7.2843,-7.2851,-7.2858,0,0,0,0,0,0,0,0,0,0,0,0,0,-7.2389,-7.2254,-7.256,-7.2574,-7.2577,-7.2714,-7.2717,-7.272,-7.2702,-7.2699,-7.2695,-7.2692,-7.2841,-7.285,-7.286,-7.2991,0,0,-7.2888,-7.2893,0,0,0,0,0,0,0,0,-7.2381,-7.2401,-7.257,-7.2573,-7.2577,-7.2685,-7.2661,-7.281,-7.2703,-7.2654,-7.2694,-7.269,-7.2795,-7.2808,-7.2845,-7.2998,-7.3005,-7.2889,-7.2895,-7.2899,-7.2902,0,0,0,0,0,0,0,-7.2371,-7.2394,-7.2621,-7.2572,-7.2577,-7.2571,-7.2587,-7.269,-7.2743,-7.2658,-7.2658,-7.2676,-7.2796,-7.2835,-7.2848,-7.3007,-7.2889,-7.2897,-7.2903,-7.2907,-7.3278,-7.3281,0,0,0,0,0,0,-7.2359,-7.2386,-7.2616,-7.2626,-7.2468,-7.258,-7.2598,-7.2654,-7.2742,-7.2752,-7.2679,-7.2675,-7.2821,-7.2837,-7.2853,-7.3014,-7.2899,-7.2908,-7.2913,-7.3273,-7.3278,-7.3283,0,0,0,0,0,0,-7.2352,-7.238,-7.261,-7.2506,-7.2535,-7.2589,-7.2652,-7.2659,-7.2699,-7.2758,-7.2767,-7.2711,-7.2819,-7.284,-7.2958,-7.3019,-7.2912,-7.2921,-7.3268,-7.3275,-7.3281,-7.3336,0,0,0,0,0,0,-7.2343,-7.2377,-7.2429,-7.2507,-7.2541,-7.2714,-7.2656,-7.2665,-7.2716,-7.2712,-7.2789,-7.2799,-7.2818,-7.2944,-7.2967,-7.303,-7.2928,-7.3263,-7.3271,-7.3279,-7.3329,-7.3343,-7.3356,0,0,0,0,0,-7.2332,-7.2436,-7.2432,-7.2459,-7.2607,-7.2717,-7.2736,-7.2758,-7.2721,-7.2773,-7.2811,-7.2796,-7.3009,-7.2956,-7.2982,-7.3049,-7.3259,-7.3269,-7.3278,-7.3323,-7.334,-7.3355,0,0,0,0,0,0,-7.2361,-7.2447,-7.2442,-7.2576,-7.264,-7.2714,-7.278,-7.2776,-7.285,-7.2842,-7.2864,-7.2882,-7.3001,-7.3036,-7.2976,-7.3181,-7.3129,-7.3144,-7.3154,-7.3171,-7.3184,-7.3173,-7.2936,0,0,0,0,0,-7.2383,-7.2468,-7.2538,-7.2648,-7.2681,-7.2726,-7.2774,-7.2786,-7.2852,-7.2878,-7.2925,-7.2988,-7.307,-7.3122,-7.32,-7.3334,-7.3351,-7.3393,-7.3406,-7.3417,-7.3429,-7.3504,-7.3524,-7.3314,-7.3314,-7.3314,0,0,-7.2429,-7.2487,-7.2538,-7.2656,-7.2707,-7.2793,-7.2748,-7.284,-7.2904,-7.2892,-7.3007,-7.3043,-7.3115,-7.3242,-7.33,-7.3276,-7.3491,-7.3429,-7.3437,-7.3444,-7.3516,-7.3535,-7.3553,-7.332,-7.3319,-7.3318,0,0,-7.2557,-7.2609,-7.2708,-7.2761,-7.284,-7.2869,-7.2893,-7.2969,-7.2994,-7.311,-7.3103,-7.3178,-7.3317,-7.337,-7.3414,-7.3565,-7.3554,-7.3589,-7.3659,-7.3731,-7.3747,-7.3762,-7.3816,-7.3835,-7.3601,-7.3602,-7.3602,0,-7.2603,-7.2735,-7.2759,-7.2853,-7.2905,-7.2901,-7.3001,-7.305,-7.3149,-7.3185,-7.3156,-7.3332,-7.338,-7.352,-7.3557,-7.3593,-7.362,-7.358,-7.3743,-7.3758,-7.3772,-7.3824,-7.3844,-7.3605,-7.3605,-7.3605,-7.3604,0,-7.2788,-7.2879,-7.2949,-7.3049,-7.3108,-7.3205,-7.3242,-7.33,-7.3307,-7.3338,-7.3457,-7.3515,-7.3605,-7.3639,-7.3645,-7.378,-7.3763,-7.3739,-7.3686,-7.3796,-7.3845,-7.3865,-7.3611,-7.3609,-7.3608,-7.3607,0,0,-7.2936,-7.305,-7.3075,-7.3121,-7.3209,-7.3279,-7.3375,-7.3466,-7.3515,-7.3584,-7.3665,-7.3784,-7.3763,-7.3814,-7.3826,-7.389,-7.4006,-7.3858,-7.386,-7.3883,-7.4158,-7.4175,-7.4198,-7.4,-7.4004,-7.4007,-7.4152,0,-7.3073,-7.3246,-7.3272,-7.3423,-7.3508,-7.3506,-7.359,-7.3652,-7.3685,-7.376,-7.3795,-7.388,-7.3846,-7.3877,-7.394,-7.3978,-7.4061,-7.3968,-7.4074,-7.4077,-7.4056,-7.4223,-7.4242,-7.4376,-7.4171,-7.4175,-7.4177,0,-7.3255,-7.3332,-7.3493,-7.3572,-7.3608,-7.3683,-7.3769,-7.3842,-7.3912,-7.3932,-7.399,-7.3995,-7.4094,-7.4038,-7.4174,-7.411,-7.4155,-7.4181,-7.4187,-7.4196,-7.4133,-7.4238,-7.4419,-7.4439,-7.4207,-7.4205,-7.4203,0,-7.3347,-7.3492,-7.3607,-7.3646,-7.374,-7.3793,-7.3834,-7.3902,-7.3955,-7.403,-7.4065,-7.4149,-7.4195,-7.4259,-7.4287,-7.4244,-7.4421,-7.4367,-7.4439,-7.4438,-7.4475,-7.4472,-7.4666,-7.4505,-7.4505,-7.4504,-7.4504,0,-7.3497,-7.3595,-7.365,-7.3721,-7.3831,-7.386,-7.3967,-7.4007,-7.4067,-7.4144,-7.4148,-7.422,-7.4252,-7.4329,-7.4351,-7.446,-7.4481,-7.4498,-7.4503,-7.4498,-7.4496,-7.4527,-7.4518,-7.451,-7.4509,-7.4507,-7.4507,0,-7.3618,-7.3659,-7.3785,-7.3865,-7.3887,-7.3965,-7.4032,-7.4101,-7.4134,-7.4232,-7.4256,-7.4308,-7.4399,-7.4433,-7.4543,-7.4558,-7.4684,-7.4681,-7.4661,-7.4662,-7.4732,-7.4725,-7.4952,-7.4983,-7.4802,-7.4803,-7.4805,0,-7.3711,-7.3787,-7.3876,-7.393,-7.3974,-7.4059,-7.4115,-7.4146,-7.4203,-7.4291,-7.4349,-7.444,-7.4515,-7.466,-7.4706,-7.479,-7.4789,-7.4863,-7.4801,-7.4795,-7.479,-7.4785,-7.4793,-7.4874,-7.4876,-7.4877,-7.4878,0,-7.3871,-7.3888,-7.3969,-7.4059,-7.4126,-7.4197,-7.4265,-7.4308,-7.4349,-7.4414,-7.4509,-7.4567,-7.4681,-7.4772,-7.4859,-7.4899,-7.4896,-7.4898,-7.4919,-7.4914,-7.49,-7.4909,-7.4692,-7.4892,-7.4891,-7.489,-7.4889,-7.4888,-7.3981,-7.4049,-7.4123,-7.4214,-7.427,-7.4335,-7.4403,-7.4447,-7.4527,-7.4624,-7.4637,-7.4739,-7.4808,-7.4925,-7.497,-7.5049,-7.5029,-7.5059,-7.5067,-7.5074,-7.5079,-7.4888,-7.5065,-7.5064,-7.5064,-7.5064,-7.5063,0,-7.4141,-7.4189,-7.4273,-7.4371,-7.4442,-7.4436,-7.4512,-7.4572,-7.4662,-7.4728,-7.4803,-7.4912,-7.5001,-7.5055,-7.5143,-7.5196,-7.5197,-7.5218,-7.5214,-7.5224,-7.5091,-7.5065,-7.5216,-7.5216,-7.5216,-7.5216,-7.5216,-7.5216,-7.4233,-7.4348,-7.4375,-7.4518,-7.4565,-7.4667,-7.4711,-7.4771,-7.4824,-7.4947,-7.5022,-7.5057,-7.5119,-7.5212,-7.5293,-7.5306,-7.5338,-7.5361,-7.5373,-7.5248,-7.5233,-7.5217,-7.5192,-7.5368,-7.5369,-7.5499,-7.55,-7.5501]}]]